Starlink 34297

operational
NORAD ID: 64261 Int'l Des: 2025-120 Owner: SPXS Country: US Constellation: starlink
LEOCIRCULAR

Starlink 34297について

説明を読み込み中...

リアルタイム位置

3D地球を読み込み中...

次回通過

高度履歴

Altitude vs Time

uPlot chart will show altitude changes over time

軌道要素

1 64261U 25120F 25355.09719516 .00019710 00000-0 67582-3 0 9996
2 64261 53.1594 121.7237 0001706 78.7501 281.3691 15.30199608 31784
Epoch: Dec 21, 2025 • Age: 11 hours

現在のステータス

高度 477.5 km
速度 7.63 km/s
衛星直下点 38.95°N, 136.74°W
打ち上げ日 Jun 4, 2025
運用期間 0.5 years
タイプ internet

技術仕様

分類 Payload
質量 575.00 kg
乾燥質量 530.00 kg
総質量 575.00 kg
長さ 0.30 m
直径 4.10 m
スパン 29.00 m
形状 Box + pan
製造者 SPXS
バスタイプ Starlink V2MO
フェーズステータス In Orbit
所有者/国 SPXS/US

大規模コンステレーション

Loading constellations...